Date String (YYYY-MM-DD hh:mm:ss) UTC,Instrument flags,Ambient pressure (hPa),Sample flow (lpm),Bypass flow (lpm),Sample temperature (°C),Ambient temperature (°C),ASC tube jacket temperature (°C),LED temperature (°C),Box temperature (°C),Sample RH (%),Span deviation,Mass concentration (μg/m³),Mass concentration (μg/m³),Mass concentration (μg/m³)
DateTimeUTC,F1_M11,P_M11,Q1_M11,Q2_M11,T1_M11,T2_M11,T3_M11,T4_M11,T5_M11,U1_M11,ZSPAN_M11,X0_M11,X2_M11,X1_M11
2023-02-22 21:00:00,,0807.2,5.00,0.00,23.0,22.2,00.0,31.7,24.7,04.5,0000.0,0004.48,0003.18,0002.86
2023-02-22 21:01:00,,0807.2,5.00,0.00,23.0,21.9,00.0,31.7,24.6,04.5,0000.0,0004.65,0003.21,0002.88
2023-02-22 21:02:00,,0807.1,5.00,0.00,22.9,21.6,00.0,31.7,24.5,04.5,0000.0,0004.71,0003.21,0002.89
2023-02-22 21:03:00,,0807.1,5.00,0.00,22.9,21.4,00.0,31.7,24.5,04.5,0000.0,0004.80,0003.22,0002.89
2023-02-22 21:04:00,,0807.1,5.00,0.00,22.9,21.2,00.0,31.7,24.4,04.6,0000.0,0004.56,0003.23,0002.88
2023-02-22 21:05:00,,0807.1,4.99,0.00,22.8,21.0,00.0,31.7,24.3,04.7,0000.0,0004.62,0003.26,0002.87
2023-02-22 21:06:00,,0807.1,5.01,0.00,22.8,21.4,00.0,31.6,24.4,04.6,0000.0,0004.78,0003.29,0002.89
2023-02-22 21:07:00,,0806.8,5.00,0.00,22.9,22.5,00.0,31.6,24.7,04.6,0000.0,0004.93,0003.29,0002.89
2023-02-22 21:08:00,,0806.7,5.00,0.00,23.0,23.3,00.0,31.6,24.9,04.6,0000.0,0005.85,0003.31,0002.90
2023-02-22 21:09:00,,0806.6,5.00,0.00,23.1,23.1,00.0,31.7,24.9,04.5,0000.0,0006.04,0003.32,0002.91
2023-02-22 21:10:00,,0806.5,5.00,0.00,23.0,22.6,00.0,31.7,24.8,04.5,0000.0,0006.38,0003.33,0002.93
2023-02-22 21:11:00,,0806.4,5.00,0.00,23.0,22.1,00.0,31.7,24.6,04.5,0000.0,0007.36,0003.36,0002.94
2023-02-22 21:12:00,,0806.4,5.00,0.00,23.0,21.8,00.0,31.7,24.6,04.5,0000.0,0007.37,0003.37,0002.93
2023-02-22 21:13:00,,0806.5,5.00,0.00,22.9,21.5,00.0,31.7,24.5,04.6,0000.0,0007.35,0003.37,0002.93
2023-02-22 21:14:00,,0806.7,5.00,0.00,22.9,21.3,00.0,31.7,24.3,04.5,0000.0,0007.56,0003.38,0002.92
2023-02-22 21:15:00,,0806.5,5.00,0.00,22.8,21.1,00.0,31.7,24.3,04.6,0000.0,0008.01,0003.35,0002.89
2023-02-22 21:16:00,,0806.4,5.01,0.00,22.8,21.3,00.0,31.6,24.4,04.6,0000.0,0007.95,0003.32,0002.88
2023-02-22 21:17:00,,0806.3,5.03,0.00,22.9,22.4,00.0,31.6,24.7,04.5,0000.0,0007.87,0003.29,0002.87
2023-02-22 21:18:00,,0806.4,5.00,0.00,23.0,23.2,00.0,31.6,24.9,04.5,0000.0,0007.77,0003.26,0002.85
2023-02-22 21:19:00,,0806.6,5.00,0.00,23.1,23.2,00.0,31.7,24.9,04.5,0000.0,0007.12,0003.23,0002.84
2023-02-22 21:20:00,,0806.7,5.01,0.00,23.1,22.7,00.0,31.7,24.8,04.5,0000.0,0006.91,0003.22,0002.83
2023-02-22 21:21:00,,0806.7,4.98,0.00,23.0,22.2,00.0,31.7,24.7,04.5,0000.0,0006.57,0003.19,0002.82
2023-02-22 21:22:00,,0806.7,4.99,0.00,23.0,21.8,00.0,31.7,24.6,04.5,0000.0,0005.50,0003.16,0002.80
2023-02-22 21:23:00,,0806.8,5.01,0.00,22.9,21.5,00.0,31.7,24.5,04.5,0000.0,0005.34,0003.13,0002.80
2023-02-22 21:24:00,,0806.8,5.00,0.00,22.9,21.3,00.0,31.7,24.5,04.4,0000.0,0005.42,0003.15,0002.80
2023-02-22 21:25:00,,0806.8,4.99,0.00,22.8,21.1,00.0,31.7,24.4,04.5,0000.0,0005.10,0003.15,0002.81
2023-02-22 21:26:00,,0806.8,5.01,0.00,22.8,21.0,00.0,31.7,24.4,04.6,0000.0,0004.47,0003.17,0002.82
2023-02-22 21:27:00,,0807.1,5.01,0.00,22.8,21.7,00.0,31.6,24.5,04.6,0000.0,0005.35,0003.17,0002.84
2023-02-22 21:28:00,,0807.2,4.99,0.00,22.9,22.8,00.0,31.6,24.8,04.5,0000.0,0005.39,0003.19,0002.84
2023-02-22 21:29:00,,0807.3,5.00,0.00,23.0,23.5,00.0,31.7,25.0,04.5,0000.0,0005.38,0003.19,0002.86
2023-02-22 21:30:00,,0807.3,4.97,0.00,23.1,23.1,00.0,31.7,24.9,04.5,0000.0,0005.36,0003.20,0002.87
2023-02-22 21:31:00,,0807.2,5.01,0.00,23.1,22.6,00.0,31.7,24.8,04.5,0000.0,0005.51,0003.23,0002.89
2023-02-22 21:32:00,,0807.1,5.01,0.00,23.0,22.1,00.0,31.7,24.7,04.5,0000.0,0005.67,0003.25,0002.90
2023-02-22 21:33:00,,0807.2,5.00,0.00,23.0,21.8,00.0,31.7,24.6,04.5,0000.0,0005.88,0003.27,0002.91
2023-02-22 21:34:00,,0807.1,5.01,0.00,23.0,21.6,00.0,31.7,24.5,04.6,0000.0,0005.89,0003.27,0002.91
2023-02-22 21:35:00,,0807.1,5.01,0.00,22.9,21.4,00.0,31.7,24.5,04.6,0000.0,0005.77,0003.24,0002.91
2023-02-22 21:36:00,,0807.0,5.00,0.00,22.9,21.2,00.0,31.7,24.5,04.5,0000.0,0005.73,0003.23,0002.90
2023-02-22 21:37:00,,0806.8,4.99,0.00,22.9,21.1,00.0,31.7,24.4,04.6,0000.0,0005.64,0003.25,0002.92
2023-02-22 21:38:00,,0806.6,5.00,0.00,22.8,21.0,00.0,31.7,24.4,04.6,0000.0,0004.66,0003.26,0002.92
2023-02-22 21:39:00,,0806.5,4.98,0.00,22.8,20.9,00.0,31.7,24.3,04.7,0000.0,0004.68,0003.25,0002.92
2023-02-22 21:40:00,,0806.5,5.02,0.00,22.8,21.8,00.0,31.6,24.5,04.7,0000.0,0004.73,0003.26,0002.92
2023-02-22 21:41:00,,0806.7,4.97,0.00,22.9,22.8,00.0,31.6,24.8,04.7,0000.0,0004.74,0003.27,0002.91
2023-02-22 21:42:00,,0807.0,4.98,0.00,23.0,23.3,00.0,31.6,24.9,04.7,0000.0,0004.71,0003.25,0002.89
2023-02-22 21:43:00,,0807.2,4.97,0.00,23.0,22.8,00.0,31.7,24.8,04.7,0000.0,0004.54,0003.23,0002.86
2023-02-22 21:44:00,,0807.1,5.00,0.00,23.0,22.3,00.0,31.7,24.7,04.7,0000.0,0004.41,0003.23,0002.87
2023-02-22 21:45:00,,0806.8,5.00,0.00,22.9,21.8,00.0,31.7,24.5,04.7,0000.0,0004.30,0003.22,0002.86
2023-02-22 21:46:00,,0806.6,5.01,0.00,22.9,21.5,00.0,31.7,24.5,04.7,0000.0,0004.37,0003.23,0002.86
2023-02-22 21:47:00,,0806.5,5.00,0.00,22.8,21.2,00.0,31.7,24.3,04.7,0000.0,0004.39,0003.24,0002.87
2023-02-22 21:48:00,,0806.5,5.01,0.00,22.8,21.0,00.0,31.7,24.3,04.7,0000.0,0004.31,0003.22,0002.85
2023-02-22 21:49:00,,0806.7,5.02,0.00,22.8,21.7,00.0,31.6,24.5,04.7,0000.0,0004.29,0003.21,0002.83
2023-02-22 21:50:00,,0806.9,4.99,0.00,22.9,22.7,00.0,31.6,24.8,04.7,0000.0,0004.30,0003.21,0002.83
2023-02-22 21:51:00,,0807.1,5.01,0.00,23.0,23.3,00.0,31.6,24.9,04.7,0000.0,0004.27,0003.21,0002.83
2023-02-22 21:52:00,,0807.1,4.96,0.00,23.0,22.8,00.0,31.7,24.8,04.7,0000.0,0004.33,0003.21,0002.84
2023-02-22 21:53:00,,0807.2,5.00,0.00,23.0,22.3,00.0,31.7,24.7,04.8,0000.0,0004.38,0003.21,0002.86
2023-02-22 21:54:00,,0807.3,4.99,0.00,22.9,21.8,00.0,31.7,24.5,04.8,0000.0,0004.45,0003.23,0002.86
2023-02-22 21:55:00,,0807.2,5.01,0.00,22.9,21.5,00.0,31.7,24.5,04.8,0000.0,0004.46,0003.23,0002.85
2023-02-22 21:56:00,,0807.1,5.00,0.00,22.9,21.2,00.0,31.7,24.4,04.9,0000.0,0004.55,0003.24,0002.86
2023-02-22 21:57:00,,0807.1,4.99,0.00,22.8,21.0,00.0,31.7,24.3,04.9,0000.0,0004.69,0003.25,0002.86
2023-02-22 21:58:00,,0807.0,5.01,0.00,22.8,20.9,00.0,31.6,24.3,04.8,0000.0,0004.67,0003.24,0002.85
2023-02-22 21:59:00,,0807.1,5.00,0.00,22.8,21.6,00.0,31.6,24.4,04.7,0000.0,0004.79,0003.27,0002.88
